Location: Newark
(16.9667°N, 88.2167°W)
Time: 04:27:12
(UTC+00:00)

Envisat - Visible Passes

Search period start: 20 October 2019 00:00
Search period end: 30 October 2019 00:00
Orbit: 764 x 766 km, 98.1° (Epoch: 19 October)

Date Brightness Start Highest point End Pass type
(mag) Time Alt. Az. Time Alt. Az. Time Alt. Az.
20 Oct 4.2 00:41:08 10° S 00:45:58 45° W 00:50:47 10° NNW visible
20 Oct 6.7 11:26:56 10° ENE 11:28:51 12° E 11:30:46 10° ESE visible
21 Oct 2.9 00:04:15 10° SSE 00:09:15 66° ENE 00:14:17 10° N visible
22 Oct 5.4 01:07:35 10° SSW 01:11:28 22° W 01:15:21 10° NW visible
23 Oct 3.5 00:29:42 10° S 00:34:42 61° W 00:39:42 10° NNW visible
23 Oct 3.2 23:53:10 10° SSE 23:58:02 48° ENE 00:02:54 10° N visible
24 Oct 6.3 01:36:16 10° WSW 01:37:01 10° W 01:37:47 10° W visible
25 Oct 4.9 00:55:49 10° SSW 01:00:12 30° W 01:04:35 10° NW visible
26 Oct 3.1 00:18:22 10° S 00:23:27 83° WSW 00:28:32 10° NNW visible
26 Oct 3.5 23:42:13 10° SE 23:46:49 36° ENE 23:51:25 10° N visible
27 Oct 6.0 01:23:00 10° SW 01:25:44 15° W 01:28:28 10° WNW visible
28 Oct 4.4 00:44:13 10° S 00:48:55 40° W 00:53:39 10° NNW visible
29 Oct 2.9 00:07:10 10° SSE 00:12:13 74° ENE 00:17:16 10° N visible
